EUTELSAT 21B

Last updated on Jan. 19, 2020, 4:37 a.m. UTC

1 38992U 12062B   20018.52562274  .00000125  00000-0  00000-0 0  9994
2 38992   0.0639   8.7121 0002741 284.8234  34.6602  1.00269341 26369
UTC
Height (km)
Latitude
Longitude
Inclination
Orbital Period
UTC large
Height (km)
Speed (km/s)
/
Latitude / Longitude
Inclination (degrees)
Orbital Period (minutes)
Azimuth
Elevation
Range (km)
Doppler Factor
iOS Compass Heading
iOS Angle

Next 30 passes for location: Hong Kong

Rise time Rise Azimuth (degrees) Set time Set Azimuth (degrees) Duration Max altitude (degrees)

No matching passes for this satellites